Time,TemperatureF,DewpointF,PressureIn,WindDirection,WindDirectionDegrees,WindSpeedMPH,WindSpeedGustMPH,Humidity,HourlyPrecipIn,Conditions,Clouds,dailyrainin,SoftwareType,DateUTC
2013-06-08 00:00:00,57.6,49.3,29.94,South,180,0.0,0.0,74,0.00,,---,0.00,VWS V14.00,2013-06-08 04:00:00,
2013-06-08 00:01:00,57.6,49.3,29.94,South,180,0.0,0.0,74,0.00,,---,0.00,VWS V14.00,2013-06-08 04:01:00,
2013-06-08 00:06:00,57.6,49.3,29.94,South,180,0.0,0.0,74,0.00,,---,0.00,VWS V14.00,2013-06-08 04:06:00,
2013-06-08 00:11:00,57.4,49.2,29.94,South,180,0.0,0.0,74,0.00,,---,0.00,VWS V14.00,2013-06-08 04:11:00,
2013-06-08 00:16:00,57.2,49.0,29.94,South,180,0.0,0.0,74,0.00,,---,0.00,VWS V14.00,2013-06-08 04:16:00,
2013-06-08 00:21:00,57.2,49.4,29.94,South,180,0.0,0.0,75,0.00,,---,0.00,VWS V14.00,2013-06-08 04:21:00,
2013-06-08 00:27:00,57.0,49.2,29.94,South,180,0.0,0.0,75,0.00,,---,0.00,VWS V14.00,2013-06-08 04:27:00,
2013-06-08 00:32:00,56.8,49.4,29.94,South,180,0.0,0.0,76,0.00,,---,0.00,VWS V14.00,2013-06-08 04:32:00,
2013-06-08 00:37:00,56.8,49.4,29.94,South,180,0.0,0.0,76,0.00,,---,0.00,VWS V14.00,2013-06-08 04:37:00,
2013-06-08 00:42:00,56.7,49.5,29.94,South,180,0.0,0.0,77,0.00,,---,0.00,VWS V14.00,2013-06-08 04:42:00,
2013-06-08 00:47:00,56.5,49.4,29.94,South,180,0.0,0.0,77,0.00,,---,0.00,VWS V14.00,2013-06-08 04:47:00,
2013-06-08 00:52:00,56.3,49.2,29.94,South,180,0.0,0.0,77,0.00,,---,0.00,VWS V14.00,2013-06-08 04:52:00,
2013-06-08 00:57:00,56.3,49.5,29.94,South,180,0.0,0.0,78,0.00,,---,0.00,VWS V14.00,2013-06-08 04:57:00,
2013-06-08 01:02:00,56.1,49.4,29.94,South,180,0.0,0.0,78,0.00,,---,0.00,VWS V14.00,2013-06-08 05:02:00,
2013-06-08 01:07:00,55.9,49.5,29.94,South,180,0.0,0.0,79,0.00,,---,0.00,VWS V14.00,2013-06-08 05:07:00,
2013-06-08 01:12:00,55.9,49.5,29.94,South,180,0.0,0.0,79,0.00,,---,0.00,VWS V14.00,2013-06-08 05:12:00,
2013-06-08 01:17:00,55.8,49.4,29.94,South,180,0.0,0.0,79,0.00,,---,0.00,VWS V14.00,2013-06-08 05:17:00,
2013-06-08 01:22:00,55.6,49.8,29.94,South,180,0.0,0.0,81,0.00,,---,0.00,VWS V14.00,2013-06-08 05:22:00,
2013-06-08 01:27:00,55.6,49.8,29.94,South,180,0.0,0.0,81,0.00,,---,0.00,VWS V14.00,2013-06-08 05:27:00,
2013-06-08 01:32:00,55.4,50.0,29.94,South,180,0.0,0.0,82,0.00,,---,0.00,VWS V14.00,2013-06-08 05:32:00,
2013-06-08 01:37:00,55.2,50.2,29.94,South,180,0.0,0.0,83,0.00,,---,0.00,VWS V14.00,2013-06-08 05:37:00,
2013-06-08 01:43:00,55.0,49.7,29.94,South,180,0.0,0.0,82,0.00,,---,0.00,VWS V14.00,2013-06-08 05:43:00,
2013-06-08 01:48:00,55.0,49.7,29.94,South,180,0.0,0.0,82,0.00,,---,0.00,VWS V14.00,2013-06-08 05:48:00,
2013-06-08 01:53:00,54.9,49.8,29.94,South,180,0.0,0.0,83,0.00,,---,0.00,VWS V14.00,2013-06-08 05:53:00,
2013-06-08 01:58:00,54.7,49.6,29.94,South,180,0.0,0.0,83,0.00,,---,0.00,VWS V14.00,2013-06-08 05:58:00,
2013-06-08 02:03:00,54.5,49.5,29.94,South,180,0.0,0.0,83,0.00,,---,0.00,VWS V14.00,2013-06-08 06:03:00,
2013-06-08 02:08:00,54.5,49.5,29.94,South,180,0.0,0.0,83,0.00,,---,0.00,VWS V14.00,2013-06-08 06:08:00,
2013-06-08 02:13:00,54.5,49.8,29.94,South,180,0.0,0.0,84,0.00,,---,0.00,VWS V14.00,2013-06-08 06:13:00,
2013-06-08 02:18:00,54.5,49.8,29.94,South,180,0.0,0.0,84,0.00,,---,0.00,VWS V14.00,2013-06-08 06:18:00,
2013-06-08 02:23:00,54.3,49.6,29.94,South,180,0.0,0.0,84,0.00,,---,0.00,VWS V14.00,2013-06-08 06:23:00,
2013-06-08 02:28:00,54.3,49.6,29.91,South,180,0.0,0.0,84,0.00,,---,0.00,VWS V14.00,2013-06-08 06:28:00,
2013-06-08 02:33:00,54.1,49.4,29.91,South,180,0.0,0.0,84,0.00,,---,0.00,VWS V14.00,2013-06-08 06:33:00,
2013-06-08 02:38:00,54.1,49.4,29.91,South,180,0.0,0.0,84,0.00,,---,0.00,VWS V14.00,2013-06-08 06:38:00,
2013-06-08 02:43:00,54.0,49.2,29.91,South,180,0.0,0.0,84,0.00,,---,0.00,VWS V14.00,2013-06-08 06:43:00,
2013-06-08 02:48:00,54.0,49.2,29.91,South,180,0.0,0.0,84,0.00,,---,0.00,VWS V14.00,2013-06-08 06:48:00,
2013-06-08 02:53:00,53.8,49.1,29.91,South,180,0.0,0.0,84,0.00,,---,0.00,VWS V14.00,2013-06-08 06:53:00,
2013-06-08 02:58:00,53.8,49.1,29.94,South,180,0.0,0.0,84,0.00,,---,0.00,VWS V14.00,2013-06-08 06:58:00,
2013-06-08 03:03:00,53.6,48.9,29.94,South,180,0.0,0.0,84,0.00,,---,0.00,VWS V14.00,2013-06-08 07:03:00,
2013-06-08 03:09:00,53.6,49.2,29.94,South,180,0.0,0.0,85,0.00,,---,0.00,VWS V14.00,2013-06-08 07:09:00,
2013-06-08 03:14:00,53.6,49.2,29.94,South,180,0.0,0.0,85,0.00,,---,0.00,VWS V14.00,2013-06-08 07:14:00,
2013-06-08 03:19:00,53.6,49.2,29.94,South,180,0.0,0.0,85,0.00,,---,0.00,VWS V14.00,2013-06-08 07:19:00,
2013-06-08 03:24:00,53.6,49.2,29.94,South,180,0.0,0.0,85,0.00,,---,0.00,VWS V14.00,2013-06-08 07:24:00,
2013-06-08 03:29:00,53.4,49.0,29.94,South,180,0.0,0.0,85,0.00,,---,0.00,VWS V14.00,2013-06-08 07:29:00,
2013-06-08 03:34:00,53.4,49.0,29.94,South,180,0.0,0.0,85,0.00,,---,0.00,VWS V14.00,2013-06-08 07:34:00,
2013-06-08 03:39:00,53.2,48.8,29.94,ENE,68,1.6,1.6,85,0.00,,---,0.00,VWS V14.00,2013-06-08 07:39:00,
2013-06-08 03:44:00,53.1,49.0,29.94,ENE,68,0.9,0.9,86,0.00,,---,0.00,VWS V14.00,2013-06-08 07:44:00,
2013-06-08 03:49:00,52.9,48.8,29.94,ENE,68,0.0,0.0,86,0.00,,---,0.00,VWS V14.00,2013-06-08 07:49:00,
2013-06-08 03:54:00,52.7,48.6,29.94,ESE,112,0.0,2.0,86,0.00,,---,0.00,VWS V14.00,2013-06-08 07:54:00,
2013-06-08 03:59:00,52.7,49.0,29.94,ESE,112,0.0,0.0,87,0.00,,---,0.00,VWS V14.00,2013-06-08 07:59:00,
2013-06-08 04:04:00,52.7,49.0,29.94,ESE,112,0.0,0.0,87,0.00,,---,0.00,VWS V14.00,2013-06-08 08:04:00,
2013-06-08 04:09:00,52.7,49.0,29.94,ESE,112,0.0,0.0,87,0.00,,---,0.00,VWS V14.00,2013-06-08 08:09:00,
2013-06-08 04:14:00,52.7,49.0,29.94,ESE,112,0.0,0.0,87,0.00,,---,0.00,VWS V14.00,2013-06-08 08:14:00,
2013-06-08 04:19:00,52.7,49.0,29.94,ESE,112,0.0,0.0,87,0.00,,---,0.00,VWS V14.00,2013-06-08 08:19:00,
2013-06-08 04:24:00,52.7,49.2,29.94,ESE,112,0.0,0.0,88,0.00,,---,0.00,VWS V14.00,2013-06-08 08:24:00,
2013-06-08 04:29:00,52.7,49.2,29.94,ESE,112,0.0,0.0,88,0.00,,---,0.00,VWS V14.00,2013-06-08 08:29:00,
2013-06-08 04:34:00,52.7,49.2,29.94,ESE,112,0.0,0.0,88,0.00,,---,0.00,VWS V14.00,2013-06-08 08:34:00,
2013-06-08 04:39:00,52.7,49.2,29.94,ESE,112,0.0,0.0,88,0.00,,---,0.00,VWS V14.00,2013-06-08 08:39:00,
2013-06-08 04:44:00,52.7,49.2,29.94,ESE,112,0.0,0.0,88,0.00,,---,0.00,VWS V14.00,2013-06-08 08:44:00,
2013-06-08 04:49:00,52.7,49.2,29.94,ESE,112,0.0,0.0,88,0.00,,---,0.00,VWS V14.00,2013-06-08 08:49:00,
2013-06-08 04:54:00,52.7,49.2,29.94,ESE,112,0.0,0.0,88,0.00,,---,0.00,VWS V14.00,2013-06-08 08:54:00,
2013-06-08 04:59:00,52.7,49.0,29.94,ESE,112,0.0,0.0,87,0.00,,---,0.00,VWS V14.00,2013-06-08 08:59:00,
2013-06-08 05:04:00,52.5,48.8,29.94,ESE,112,0.0,0.0,87,0.00,,---,0.00,VWS V14.00,2013-06-08 09:04:00,
2013-06-08 05:09:00,52.5,48.8,29.94,ESE,112,0.0,0.0,87,0.00,,---,0.00,VWS V14.00,2013-06-08 09:09:00,
2013-06-08 05:14:00,52.5,49.1,29.94,ESE,112,0.0,0.0,88,0.00,,---,0.00,VWS V14.00,2013-06-08 09:14:00,
2013-06-08 05:19:00,52.3,48.9,29.94,ESE,112,0.0,0.0,88,0.00,,---,0.00,VWS V14.00,2013-06-08 09:19:00,
2013-06-08 05:24:00,52.2,48.7,29.94,ESE,112,0.0,0.0,88,0.00,,---,0.00,VWS V14.00,2013-06-08 09:24:00,
2013-06-08 05:29:00,52.2,48.4,29.94,ESE,112,0.0,0.0,87,0.00,,---,0.00,VWS V14.00,2013-06-08 09:29:00,
2013-06-08 05:34:00,52.0,48.2,29.94,ESE,112,0.0,0.0,87,0.00,,---,0.00,VWS V14.00,2013-06-08 09:34:00,
2013-06-08 05:39:00,52.0,48.2,29.94,ESE,112,0.0,0.0,87,0.00,,---,0.00,VWS V14.00,2013-06-08 09:39:00,
2013-06-08 05:44:00,51.8,48.1,29.94,ESE,112,0.0,0.0,87,0.00,,---,0.00,VWS V14.00,2013-06-08 09:44:00,
2013-06-08 05:49:00,51.8,48.1,29.94,ESE,112,0.0,0.0,87,0.00,,---,0.00,VWS V14.00,2013-06-08 09:49:00,
2013-06-08 05:54:00,51.6,48.2,29.94,ESE,112,0.0,0.0,88,0.00,,---,0.00,VWS V14.00,2013-06-08 09:54:00,
2013-06-08 05:59:00,51.6,48.2,29.94,ESE,112,0.0,0.0,88,0.00,,---,0.00,VWS V14.00,2013-06-08 09:59:00,
2013-06-08 06:04:00,51.6,48.2,29.94,ESE,112,0.0,0.0,88,0.00,,---,0.00,VWS V14.00,2013-06-08 10:04:00,
2013-06-08 06:09:00,51.6,48.2,29.94,ESE,112,0.0,0.0,88,0.00,,---,0.00,VWS V14.00,2013-06-08 10:09:00,
2013-06-08 06:14:00,51.4,48.3,29.94,ESE,112,0.0,0.0,89,0.00,,---,0.00,VWS V14.00,2013-06-08 10:14:00,
2013-06-08 06:19:00,51.6,48.8,29.94,ESE,112,0.0,0.0,90,0.00,,---,0.00,VWS V14.00,2013-06-08 10:19:00,
2013-06-08 06:24:00,51.6,48.8,29.94,ESE,112,0.0,0.0,90,0.00,,---,0.00,VWS V14.00,2013-06-08 10:24:00,
2013-06-08 06:29:00,51.6,48.8,29.97,ESE,112,0.0,0.0,90,0.00,,---,0.00,VWS V14.00,2013-06-08 10:29:00,
2013-06-08 06:34:00,51.6,48.8,29.97,ESE,112,0.0,0.0,90,0.00,,---,0.00,VWS V14.00,2013-06-08 10:34:00,
2013-06-08 06:39:00,51.6,48.8,29.97,ESE,112,0.0,0.0,90,0.00,,---,0.00,VWS V14.00,2013-06-08 10:39:00,
2013-06-08 06:44:00,51.6,48.8,29.97,ESE,112,0.0,0.0,90,0.00,,---,0.00,VWS V14.00,2013-06-08 10:44:00,
2013-06-08 06:49:00,51.8,48.7,29.97,ESE,112,0.0,0.0,89,0.00,,---,0.00,VWS V14.00,2013-06-08 10:49:00,
2013-06-08 06:54:00,51.8,49.0,29.97,ESE,112,0.0,0.0,90,0.00,,---,0.00,VWS V14.00,2013-06-08 10:54:00,
2013-06-08 06:59:00,52.0,49.1,29.97,ESE,112,0.0,0.0,90,0.00,,---,0.00,VWS V14.00,2013-06-08 10:59:00,
2013-06-08 07:04:00,52.0,49.1,29.97,ESE,112,0.0,0.0,90,0.00,,---,0.00,VWS V14.00,2013-06-08 11:04:00,
2013-06-08 07:09:00,52.2,49.3,29.97,ESE,112,0.0,0.0,90,0.00,,---,0.00,VWS V14.00,2013-06-08 11:09:00,
2013-06-08 07:14:00,52.3,49.5,29.97,ESE,112,0.0,0.0,90,0.00,,---,0.00,VWS V14.00,2013-06-08 11:14:00,
2013-06-08 07:19:00,52.7,50.2,29.97,ESE,112,0.0,0.0,91,0.00,,---,0.00,VWS V14.00,2013-06-08 11:19:00,
2013-06-08 07:24:00,52.9,50.0,29.97,ESE,112,0.0,0.0,90,0.00,,---,0.00,VWS V14.00,2013-06-08 11:24:00,
2013-06-08 07:29:00,53.1,50.2,29.97,ESE,112,0.0,0.0,90,0.00,,---,0.00,VWS V14.00,2013-06-08 11:29:00,
2013-06-08 07:34:00,53.2,50.7,29.97,ESE,112,0.0,0.0,91,0.00,,---,0.00,VWS V14.00,2013-06-08 11:34:00,
2013-06-08 07:39:00,53.6,50.7,29.97,ESE,112,0.0,0.0,90,0.00,,---,0.00,VWS V14.00,2013-06-08 11:39:00,
2013-06-08 07:44:00,54.0,51.1,30.00,SE,135,0.0,0.0,90,0.00,,---,0.00,VWS V14.00,2013-06-08 11:44:00,
2013-06-08 07:49:00,54.3,51.5,30.00,SE,135,1.1,1.6,90,0.00,,---,0.00,VWS V14.00,2013-06-08 11:49:00,
2013-06-08 07:54:00,54.7,51.5,30.00,SE,135,0.0,1.6,89,0.00,,---,0.00,VWS V14.00,2013-06-08 11:54:00,
2013-06-08 07:59:00,55.2,52.0,30.00,SE,135,0.0,0.0,89,0.00,,---,0.00,VWS V14.00,2013-06-08 11:59:00,
2013-06-08 08:04:00,55.6,52.1,30.00,North,0,1.3,1.3,88,0.00,,---,0.00,VWS V14.00,2013-06-08 12:04:00,
2013-06-08 08:09:00,55.9,52.1,30.00,North,0,0.0,0.9,87,0.00,,---,0.00,VWS V14.00,2013-06-08 12:09:00,
2013-06-08 08:14:00,56.5,52.7,30.00,SSE,158,0.9,1.6,87,0.00,,---,0.00,VWS V14.00,2013-06-08 12:14:00,
2013-06-08 08:19:00,57.0,52.9,30.00,SSE,158,0.0,0.0,86,0.00,,---,0.00,VWS V14.00,2013-06-08 12:19:00,
2013-06-08 08:24:00,57.6,53.1,30.00,SSE,158,0.0,2.0,85,0.00,,---,0.00,VWS V14.00,2013-06-08 12:24:00,
2013-06-08 08:29:00,57.9,53.1,30.03,East,90,1.3,1.3,84,0.00,,---,0.00,VWS V14.00,2013-06-08 12:29:00,
2013-06-08 08:34:00,58.5,53.7,30.03,SSE,158,2.0,2.5,84,0.00,,---,0.00,VWS V14.00,2013-06-08 12:34:00,
2013-06-08 08:39:00,58.8,53.7,30.03,SSE,158,0.0,0.0,83,0.00,,---,0.00,VWS V14.00,2013-06-08 12:39:00,
2013-06-08 08:44:00,59.0,53.5,30.00,SE,135,0.0,0.0,82,0.00,,---,0.00,VWS V14.00,2013-06-08 12:44:00,
2013-06-08 08:49:00,59.4,53.5,30.00,NNE,22,0.0,0.0,81,0.00,,---,0.00,VWS V14.00,2013-06-08 12:49:00,
2013-06-08 08:54:00,59.7,53.9,30.00,NE,45,0.0,0.0,81,0.00,,---,0.00,VWS V14.00,2013-06-08 12:54:00,
2013-06-08 08:59:00,59.9,53.7,30.00,North,0,0.0,0.0,80,0.00,,---,0.00,VWS V14.00,2013-06-08 12:59:00,
2013-06-08 09:04:00,60.4,54.2,30.00,SSE,158,2.0,2.2,80,0.00,,---,0.00,VWS V14.00,2013-06-08 13:04:00,
2013-06-08 09:09:00,60.6,54.1,30.00,SSE,158,0.0,1.3,79,0.00,,---,0.00,VWS V14.00,2013-06-08 13:09:00,
2013-06-08 09:14:00,61.2,54.3,30.00,ENE,68,0.0,1.6,78,0.00,,---,0.00,VWS V14.00,2013-06-08 13:14:00,
2013-06-08 09:19:00,61.3,53.7,30.00,East,90,1.1,1.1,76,0.00,,---,0.00,VWS V14.00,2013-06-08 13:19:00,
2013-06-08 09:24:00,61.7,54.1,30.00,SSE,158,0.0,0.0,76,0.00,,---,0.00,VWS V14.00,2013-06-08 13:24:00,
2013-06-08 09:29:00,62.1,54.4,29.97,NE,45,1.3,1.3,76,0.00,,---,0.00,VWS V14.00,2013-06-08 13:29:00,
2013-06-08 09:34:00,62.4,54.4,29.97,SSE,158,1.3,1.3,75,0.00,,---,0.00,VWS V14.00,2013-06-08 13:34:00,
2013-06-08 09:39:00,62.6,54.2,29.97,NW,315,0.0,0.0,74,0.00,,---,0.00,VWS V14.00,2013-06-08 13:39:00,
2013-06-08 09:44:00,62.8,54.0,30.00,NNW,338,0.9,0.9,73,0.00,,---,0.00,VWS V14.00,2013-06-08 13:44:00,
2013-06-08 09:49:00,63.0,53.8,30.00,NE,45,0.0,0.0,72,0.00,,---,0.00,VWS V14.00,2013-06-08 13:49:00,
2013-06-08 09:54:00,63.1,54.0,30.00,NNE,22,1.3,2.0,72,0.00,,---,0.00,VWS V14.00,2013-06-08 13:54:00,
2013-06-08 09:59:00,63.5,54.3,30.00,ENE,68,0.0,0.0,72,0.00,,---,0.00,VWS V14.00,2013-06-08 13:59:00,
2013-06-08 10:05:00,64.0,54.8,30.00,SE,135,0.0,0.0,72,0.00,,---,0.00,VWS V14.00,2013-06-08 14:05:00,
2013-06-08 10:10:00,64.0,54.1,30.00,ESE,112,2.0,2.2,70,0.00,,---,0.00,VWS V14.00,2013-06-08 14:10:00,
2013-06-08 10:15:00,64.4,54.0,29.97,SE,135,1.1,2.0,69,0.00,,---,0.00,VWS V14.00,2013-06-08 14:15:00,
2013-06-08 10:20:00,64.4,53.2,29.97,WSW,248,0.0,1.1,67,0.00,,---,0.00,VWS V14.00,2013-06-08 14:20:00,
2013-06-08 10:25:00,64.9,54.1,29.97,SW,225,1.3,1.3,68,0.00,,---,0.00,VWS V14.00,2013-06-08 14:25:00,
2013-06-08 10:30:00,65.3,54.5,30.00,SSE,158,3.1,3.8,68,0.00,,---,0.00,VWS V14.00,2013-06-08 14:30:00,
2013-06-08 10:35:00,65.7,54.4,30.00,SSE,158,1.3,1.3,67,0.00,,---,0.00,VWS V14.00,2013-06-08 14:35:00,
2013-06-08 10:40:00,65.8,54.6,30.00,SSE,158,2.0,2.7,67,0.00,,---,0.00,VWS V14.00,2013-06-08 14:40:00,
2013-06-08 10:45:00,66.2,54.1,30.00,WNW,292,1.3,2.5,65,0.00,,---,0.00,VWS V14.00,2013-06-08 14:45:00,
2013-06-08 10:50:00,66.6,54.4,30.00,SSW,202,2.9,2.9,65,0.00,,---,0.00,VWS V14.00,2013-06-08 14:50:00,
2013-06-08 10:55:00,66.6,54.0,30.00,NW,315,0.0,1.1,64,0.00,,---,0.00,VWS V14.00,2013-06-08 14:55:00,
2013-06-08 11:00:00,67.1,55.0,30.00,NW,315,1.6,2.5,65,0.00,,---,0.00,VWS V14.00,2013-06-08 15:00:00,
2013-06-08 11:05:00,67.5,54.4,30.00,SE,135,0.0,1.6,63,0.00,,---,0.00,VWS V14.00,2013-06-08 15:05:00,
2013-06-08 11:10:00,67.8,54.3,30.00,SSE,158,2.7,2.7,62,0.00,,---,0.00,VWS V14.00,2013-06-08 15:10:00,
2013-06-08 11:15:00,68.0,54.1,30.00,SSE,158,2.9,2.9,61,0.00,,---,0.00,VWS V14.00,2013-06-08 15:15:00,
2013-06-08 11:20:00,68.2,54.7,30.00,WSW,248,0.0,0.0,62,0.00,,---,0.00,VWS V14.00,2013-06-08 15:20:00,
2013-06-08 11:25:00,68.7,53.8,30.00,West,270,2.7,2.7,59,0.00,,---,0.00,VWS V14.00,2013-06-08 15:25:00,
2013-06-08 11:30:00,69.4,54.0,30.03,West,270,1.1,1.1,58,0.00,,---,0.00,VWS V14.00,2013-06-08 15:30:00,
2013-06-08 11:35:00,70.0,53.6,30.03,NW,315,0.0,0.9,56,0.00,,---,0.00,VWS V14.00,2013-06-08 15:35:00,
2013-06-08 11:40:00,70.0,52.6,30.03,West,270,0.0,1.1,54,0.00,,---,0.00,VWS V14.00,2013-06-08 15:40:00,
2013-06-08 11:45:00,69.8,52.4,30.00,WNW,292,0.0,0.0,54,0.00,,---,0.00,VWS V14.00,2013-06-08 15:45:00,
2013-06-08 11:50:00,69.6,51.8,30.00,NW,315,0.0,0.0,53,0.00,,---,0.00,VWS V14.00,2013-06-08 15:50:00,
2013-06-08 11:55:00,69.4,51.6,30.00,West,270,1.3,2.7,53,0.00,,---,0.00,VWS V14.00,2013-06-08 15:55:00,
2013-06-08 12:00:00,70.3,51.9,30.00,West,270,0.0,0.9,52,0.00,,---,0.00,VWS V14.00,2013-06-08 16:00:00,
2013-06-08 12:05:00,71.1,52.0,30.00,West,270,2.9,2.9,51,0.00,,---,0.00,VWS V14.00,2013-06-08 16:05:00,
2013-06-08 12:10:00,71.8,51.6,30.00,SSW,202,0.9,2.2,49,0.00,,---,0.00,VWS V14.00,2013-06-08 16:10:00,
2013-06-08 12:15:00,72.7,53.0,30.00,WSW,248,1.1,2.0,50,0.00,,---,0.00,VWS V14.00,2013-06-08 16:15:00,
2013-06-08 12:20:00,72.9,50.9,30.00,SE,135,2.2,2.5,46,0.00,,---,0.00,VWS V14.00,2013-06-08 16:20:00,
2013-06-08 12:25:00,73.0,51.1,30.00,West,270,1.1,2.9,46,0.00,,---,0.00,VWS V14.00,2013-06-08 16:25:00,
2013-06-08 12:30:00,72.7,49.5,30.00,North,0,2.5,2.5,44,0.00,,---,0.00,VWS V14.00,2013-06-08 16:30:00,
2013-06-08 12:35:00,72.5,49.4,30.00,West,270,1.3,1.3,44,0.00,,---,0.00,VWS V14.00,2013-06-08 16:35:00,
2013-06-08 12:40:00,73.4,50.8,30.00,West,270,2.0,3.4,45,0.00,,---,0.00,VWS V14.00,2013-06-08 16:40:00,
2013-06-08 12:45:00,73.6,51.0,30.00,WSW,248,1.1,1.6,45,0.00,,---,0.00,VWS V14.00,2013-06-08 16:45:00,
2013-06-08 12:50:00,74.3,51.0,30.00,SSW,202,2.5,2.5,44,0.00,,---,0.00,VWS V14.00,2013-06-08 16:50:00,
2013-06-08 12:55:00,75.0,52.3,30.00,West,270,0.9,2.0,45,0.00,,---,0.00,VWS V14.00,2013-06-08 16:55:00,
2013-06-08 13:00:00,74.8,48.9,30.00,North,0,1.1,1.1,40,0.00,,---,0.00,VWS V14.00,2013-06-08 17:00:00,
2013-06-08 13:05:00,75.0,49.8,30.00,North,0,1.1,2.0,41,0.00,,---,0.00,VWS V14.00,2013-06-08 17:05:00,
2013-06-08 13:10:00,75.4,50.7,30.00,SE,135,2.5,2.5,42,0.00,,---,0.00,VWS V14.00,2013-06-08 17:10:00,
2013-06-08 13:15:00,75.0,50.4,30.00,NE,45,0.9,1.1,42,0.00,,---,0.00,VWS V14.00,2013-06-08 17:15:00,
2013-06-08 13:20:00,75.2,50.6,30.00,SSE,158,1.1,1.3,42,0.00,,---,0.00,VWS V14.00,2013-06-08 17:20:00,
2013-06-08 13:25:00,76.1,50.7,30.00,NNE,22,2.7,3.6,41,0.00,,---,0.00,VWS V14.00,2013-06-08 17:25:00,
2013-06-08 13:30:00,76.1,50.7,30.00,SSW,202,1.1,2.0,41,0.00,,---,0.00,VWS V14.00,2013-06-08 17:30:00,
2013-06-08 13:36:00,76.3,50.9,30.00,NE,45,2.0,3.1,41,0.00,,---,0.00,VWS V14.00,2013-06-08 17:36:00,
2013-06-08 13:41:00,76.5,50.4,30.00,NW,315,1.3,2.0,40,0.00,,---,0.00,VWS V14.00,2013-06-08 17:41:00,
2013-06-08 13:46:00,75.7,49.7,30.00,South,180,0.0,0.0,40,0.00,,---,0.00,VWS V14.00,2013-06-08 17:46:00,
2013-06-08 13:51:00,73.9,48.8,30.00,SSW,202,1.1,1.1,41,0.00,,---,0.00,VWS V14.00,2013-06-08 17:51:00,
2013-06-08 13:56:00,73.9,49.4,30.00,SSE,158,1.3,2.9,42,0.00,,---,0.00,VWS V14.00,2013-06-08 17:56:00,
2013-06-08 14:01:00,74.5,49.9,30.00,SSE,158,0.0,1.6,42,0.00,,---,0.00,VWS V14.00,2013-06-08 18:01:00,
2013-06-08 14:06:00,74.7,50.1,30.00,West,270,0.9,2.0,42,0.00,,---,0.00,VWS V14.00,2013-06-08 18:06:00,
2013-06-08 14:11:00,75.4,49.4,29.97,WSW,248,2.7,3.4,40,0.00,,---,0.00,VWS V14.00,2013-06-08 18:11:00,
2013-06-08 14:16:00,75.6,49.6,29.97,NNE,22,2.7,3.4,40,0.00,,---,0.00,VWS V14.00,2013-06-08 18:16:00,
2013-06-08 14:21:00,74.1,48.9,29.97,North,0,0.0,0.0,41,0.00,,---,0.00,VWS V14.00,2013-06-08 18:21:00,
2013-06-08 14:26:00,73.8,48.6,29.97,West,270,1.1,2.7,41,0.00,,---,0.00,VWS V14.00,2013-06-08 18:26:00,
2013-06-08 14:31:00,73.8,48.6,29.97,North,0,2.0,2.0,41,0.00,,---,0.00,VWS V14.00,2013-06-08 18:31:00,
2013-06-08 14:36:00,74.5,49.9,29.97,NE,45,1.3,1.6,42,0.00,,---,0.00,VWS V14.00,2013-06-08 18:36:00,
2013-06-08 14:41:00,75.6,50.2,29.97,NE,45,2.0,2.5,41,0.00,,---,0.00,VWS V14.00,2013-06-08 18:41:00,
2013-06-08 14:46:00,74.5,49.3,29.97,West,270,0.0,0.9,41,0.00,,---,0.00,VWS V14.00,2013-06-08 18:46:00,
2013-06-08 14:52:00,73.9,48.8,29.97,WNW,292,1.6,1.6,41,0.00,,---,0.00,VWS V14.00,2013-06-08 18:52:00,
2013-06-08 14:57:00,73.8,48.6,29.97,West,270,0.0,0.0,41,0.00,,---,0.00,VWS V14.00,2013-06-08 18:57:00,
2013-06-08 15:02:00,73.4,48.3,29.97,West,270,0.0,0.0,41,0.00,,---,0.00,VWS V14.00,2013-06-08 19:02:00,
2013-06-08 15:07:00,73.4,48.9,29.97,SW,225,0.9,0.9,42,0.00,,---,0.00,VWS V14.00,2013-06-08 19:07:00,
2013-06-08 15:12:00,73.9,49.4,29.97,SSW,202,0.0,0.0,42,0.00,,---,0.00,VWS V14.00,2013-06-08 19:12:00,
2013-06-08 15:17:00,73.8,49.3,29.97,North,0,1.1,2.2,42,0.00,,---,0.00,VWS V14.00,2013-06-08 19:17:00,
2013-06-08 15:22:00,73.4,48.9,29.97,NW,315,1.3,1.3,42,0.00,,---,0.00,VWS V14.00,2013-06-08 19:22:00,
2013-06-08 15:27:00,73.6,49.7,29.97,West,270,0.0,0.0,43,0.00,,---,0.00,VWS V14.00,2013-06-08 19:27:00,
2013-06-08 15:32:00,73.9,50.7,29.97,West,270,0.9,0.9,44,0.00,,---,0.00,VWS V14.00,2013-06-08 19:32:00,
2013-06-08 15:37:00,73.6,49.7,29.97,West,270,3.1,3.1,43,0.00,,---,0.00,VWS V14.00,2013-06-08 19:37:00,
2013-06-08 15:42:00,73.4,49.6,29.97,WSW,248,0.0,1.3,43,0.00,,---,0.00,VWS V14.00,2013-06-08 19:42:00,
2013-06-08 15:48:00,73.4,49.6,29.97,SW,225,1.1,1.3,43,0.00,,---,0.00,VWS V14.00,2013-06-08 19:48:00,
2013-06-08 15:53:00,74.1,50.2,29.97,WSW,248,1.1,3.6,43,0.00,,---,0.00,VWS V14.00,2013-06-08 19:53:00,
2013-06-08 15:58:00,74.7,50.7,29.97,SSW,202,0.0,1.3,43,0.00,,---,0.00,VWS V14.00,2013-06-08 19:58:00,
2013-06-08 16:03:00,75.2,51.2,29.97,South,180,0.0,0.0,43,0.00,,---,0.00,VWS V14.00,2013-06-08 20:03:00,
2013-06-08 16:08:00,75.4,51.3,29.97,West,270,1.6,2.9,43,0.00,,---,0.00,VWS V14.00,2013-06-08 20:08:00,
2013-06-08 16:13:00,75.2,50.6,29.97,SSW,202,0.0,0.9,42,0.00,,---,0.00,VWS V14.00,2013-06-08 20:13:00,
2013-06-08 16:18:00,74.8,50.2,29.97,WSW,248,1.3,1.6,42,0.00,,---,0.00,VWS V14.00,2013-06-08 20:18:00,
2013-06-08 16:23:00,74.7,50.1,29.97,West,270,2.0,2.0,42,0.00,,---,0.00,VWS V14.00,2013-06-08 20:23:00,
2013-06-08 16:28:00,74.5,49.9,29.97,NNE,22,0.9,1.1,42,0.00,,---,0.00,VWS V14.00,2013-06-08 20:28:00,
2013-06-08 16:33:00,73.8,49.3,29.97,NW,315,0.0,0.0,42,0.00,,---,0.00,VWS V14.00,2013-06-08 20:33:00,
2013-06-08 16:38:00,73.6,49.1,29.97,NE,45,1.6,1.6,42,0.00,,---,0.00,VWS V14.00,2013-06-08 20:38:00,
2013-06-08 16:43:00,73.4,49.6,29.97,WNW,292,1.6,2.0,43,0.00,,---,0.00,VWS V14.00,2013-06-08 20:43:00,
2013-06-08 16:48:00,73.4,49.6,29.97,West,270,2.2,2.2,43,0.00,,---,0.00,VWS V14.00,2013-06-08 20:48:00,
2013-06-08 16:53:00,73.9,50.1,29.97,North,0,1.3,2.0,43,0.00,,---,0.00,VWS V14.00,2013-06-08 20:53:00,
2013-06-08 16:58:00,73.8,49.9,29.97,North,0,0.0,0.0,43,0.00,,---,0.00,VWS V14.00,2013-06-08 20:58:00,
2013-06-08 17:03:00,73.4,50.2,29.97,SSW,202,0.0,0.0,44,0.00,,---,0.00,VWS V14.00,2013-06-08 21:03:00,
2013-06-08 17:08:00,73.6,50.3,29.97,SW,225,0.0,0.0,44,0.00,,---,0.00,VWS V14.00,2013-06-08 21:08:00,
2013-06-08 17:13:00,73.4,50.2,29.97,SW,225,0.0,0.0,44,0.00,,---,0.00,VWS V14.00,2013-06-08 21:13:00,
2013-06-08 17:18:00,73.2,50.0,29.97,West,270,0.0,0.0,44,0.00,,---,0.00,VWS V14.00,2013-06-08 21:18:00,
2013-06-08 17:23:00,73.2,50.0,29.97,West,270,0.0,0.0,44,0.00,,---,0.00,VWS V14.00,2013-06-08 21:23:00,
2013-06-08 17:28:00,73.4,50.2,29.97,West,270,1.3,2.2,44,0.00,,---,0.00,VWS V14.00,2013-06-08 21:28:00,
2013-06-08 17:33:00,73.2,48.8,29.97,NNE,22,2.0,2.0,42,0.00,,---,0.00,VWS V14.00,2013-06-08 21:33:00,
2013-06-08 17:38:00,73.0,49.2,29.97,WSW,248,1.6,1.6,43,0.00,,---,0.00,VWS V14.00,2013-06-08 21:38:00,
2013-06-08 17:43:00,73.2,50.0,30.00,NNW,338,1.6,1.6,44,0.00,,---,0.00,VWS V14.00,2013-06-08 21:43:00,
2013-06-08 17:48:00,72.9,49.1,30.00,West,270,1.3,2.0,43,0.00,,---,0.00,VWS V14.00,2013-06-08 21:48:00,
2013-06-08 17:53:00,72.9,49.1,30.00,WSW,248,3.6,3.6,43,0.00,,---,0.00,VWS V14.00,2013-06-08 21:53:00,
2013-06-08 17:58:00,73.2,50.0,30.00,West,270,0.9,2.2,44,0.00,,---,0.00,VWS V14.00,2013-06-08 21:58:00,
2013-06-08 18:04:00,73.4,49.6,30.00,West,270,0.0,0.0,43,0.00,,---,0.00,VWS V14.00,2013-06-08 22:04:00,
2013-06-08 18:09:00,73.4,49.6,30.00,WNW,292,2.7,4.0,43,0.00,,---,0.00,VWS V14.00,2013-06-08 22:09:00,
2013-06-08 18:14:00,73.4,48.9,30.00,WSW,248,3.6,3.6,42,0.00,,---,0.00,VWS V14.00,2013-06-08 22:14:00,
2013-06-08 18:19:00,72.9,48.5,30.00,WSW,248,0.0,0.9,42,0.00,,---,0.00,VWS V14.00,2013-06-08 22:19:00,
2013-06-08 18:24:00,72.5,48.1,30.00,North,0,0.0,1.1,42,0.00,,---,0.00,VWS V14.00,2013-06-08 22:24:00,
2013-06-08 18:29:00,72.1,47.8,30.00,West,270,0.9,1.3,42,0.00,,---,0.00,VWS V14.00,2013-06-08 22:29:00,
2013-06-08 18:34:00,72.1,47.8,30.00,West,270,0.0,0.0,42,0.00,,---,0.00,VWS V14.00,2013-06-08 22:34:00,
2013-06-08 18:39:00,72.5,48.1,30.00,West,270,0.0,0.0,42,0.00,,---,0.00,VWS V14.00,2013-06-08 22:39:00,
2013-06-08 18:44:00,72.5,48.1,30.00,NNW,338,0.0,1.1,42,0.00,,---,0.00,VWS V14.00,2013-06-08 22:44:00,
2013-06-08 18:49:00,72.7,48.3,30.00,WSW,248,0.0,2.5,42,0.00,,---,0.00,VWS V14.00,2013-06-08 22:49:00,
2013-06-08 18:54:00,72.7,48.3,30.00,West,270,2.2,2.2,42,0.00,,---,0.00,VWS V14.00,2013-06-08 22:54:00,
2013-06-08 18:59:00,72.5,48.8,30.00,North,0,1.1,1.3,43,0.00,,---,0.00,VWS V14.00,2013-06-08 22:59:00,
2013-06-08 19:04:00,72.5,48.8,30.00,SSE,158,2.9,2.9,43,0.00,,---,0.00,VWS V14.00,2013-06-08 23:04:00,
2013-06-08 19:09:00,72.3,48.0,30.00,North,0,1.6,1.6,42,0.00,,---,0.00,VWS V14.00,2013-06-08 23:09:00,
2013-06-08 19:14:00,71.8,47.5,30.00,North,0,0.0,0.0,42,0.00,,---,0.00,VWS V14.00,2013-06-08 23:14:00,
2013-06-08 19:19:00,71.8,48.1,30.00,North,0,0.0,0.0,43,0.00,,---,0.00,VWS V14.00,2013-06-08 23:19:00,
2013-06-08 19:24:00,71.8,48.1,30.00,North,0,0.0,0.0,43,0.00,,---,0.00,VWS V14.00,2013-06-08 23:24:00,
2013-06-08 19:29:00,72.0,48.3,30.00,NW,315,0.0,0.0,43,0.00,,---,0.00,VWS V14.00,2013-06-08 23:29:00,
2013-06-08 19:34:00,71.8,48.1,30.00,WNW,292,0.0,0.0,43,0.00,,---,0.00,VWS V14.00,2013-06-08 23:34:00,
2013-06-08 19:39:00,71.8,48.1,30.00,WNW,292,0.0,0.0,43,0.00,,---,0.00,VWS V14.00,2013-06-08 23:39:00,
2013-06-08 19:44:00,71.6,47.9,30.00,NW,315,0.0,0.0,43,0.00,,---,0.00,VWS V14.00,2013-06-08 23:44:00,
2013-06-08 19:49:00,71.2,47.6,30.00,NW,315,0.0,0.0,43,0.00,,---,0.00,VWS V14.00,2013-06-08 23:49:00,
2013-06-08 19:54:00,71.2,48.2,30.00,NW,315,0.0,2.0,44,0.00,,---,0.00,VWS V14.00,2013-06-08 23:54:00,
2013-06-08 19:59:00,71.1,48.1,30.00,NW,315,0.0,0.0,44,0.00,,---,0.00,VWS V14.00,2013-06-08 23:59:00,
2013-06-08 20:04:00,70.9,47.9,30.00,NW,315,0.0,0.0,44,0.00,,---,0.00,VWS V14.00,2013-06-09 00:04:00,
2013-06-08 20:09:00,70.5,47.6,30.00,NW,315,0.0,0.0,44,0.00,,---,0.00,VWS V14.00,2013-06-09 00:09:00,
2013-06-08 20:14:00,70.3,48.0,29.97,NW,315,0.0,0.0,45,0.00,,---,0.00,VWS V14.00,2013-06-09 00:14:00,
2013-06-08 20:19:00,70.0,47.7,29.97,NW,315,0.0,0.0,45,0.00,,---,0.00,VWS V14.00,2013-06-09 00:19:00,
2013-06-08 20:24:00,69.8,47.5,29.97,NW,315,0.0,0.0,45,0.00,,---,0.00,VWS V14.00,2013-06-09 00:24:00,
2013-06-08 20:29:00,69.4,47.8,29.97,NW,315,0.0,0.0,46,0.00,,---,0.00,VWS V14.00,2013-06-09 00:29:00,
2013-06-08 20:35:00,69.3,47.6,29.97,NW,315,0.0,0.0,46,0.00,,---,0.00,VWS V14.00,2013-06-09 00:35:00,
2013-06-08 20:40:00,69.1,47.5,29.97,NW,315,0.0,0.0,46,0.00,,---,0.00,VWS V14.00,2013-06-09 00:40:00,
2013-06-08 20:45:00,68.7,47.7,29.97,NW,315,0.0,0.0,47,0.00,,---,0.00,VWS V14.00,2013-06-09 00:45:00,
2013-06-08 20:50:00,68.4,47.9,29.97,NW,315,0.0,0.0,48,0.00,,---,0.00,VWS V14.00,2013-06-09 00:50:00,
2013-06-08 20:55:00,68.0,48.2,29.97,NW,315,0.0,0.0,49,0.00,,---,0.00,VWS V14.00,2013-06-09 00:55:00,
2013-06-08 21:00:00,67.6,47.8,30.00,NW,315,0.0,0.0,49,0.00,,---,0.00,VWS V14.00,2013-06-09 01:00:00,
2013-06-08 21:05:00,67.5,48.2,30.00,NW,315,0.0,0.0,50,0.00,,---,0.00,VWS V14.00,2013-06-09 01:05:00,
2013-06-08 21:10:00,67.1,47.3,30.00,NW,315,0.0,0.0,49,0.00,,---,0.00,VWS V14.00,2013-06-09 01:10:00,
2013-06-08 21:15:00,66.9,47.7,30.00,NW,315,0.0,0.0,50,0.00,,---,0.00,VWS V14.00,2013-06-09 01:15:00,
2013-06-08 21:20:00,66.6,47.4,30.00,NW,315,0.0,0.0,50,0.00,,---,0.00,VWS V14.00,2013-06-09 01:20:00,
2013-06-08 21:25:00,66.4,47.2,30.00,NW,315,0.0,0.0,50,0.00,,---,0.00,VWS V14.00,2013-06-09 01:25:00,
2013-06-08 21:30:00,66.0,47.4,29.97,NW,315,0.0,0.0,51,0.00,,---,0.00,VWS V14.00,2013-06-09 01:30:00,
2013-06-08 21:35:00,65.8,47.7,29.97,NW,315,0.0,0.0,52,0.00,,---,0.00,VWS V14.00,2013-06-09 01:35:00,
2013-06-08 21:40:00,65.7,48.1,29.97,NW,315,0.0,0.0,53,0.00,,---,0.00,VWS V14.00,2013-06-09 01:40:00,
2013-06-08 21:45:00,65.5,47.9,29.97,NW,315,0.0,0.0,53,0.00,,---,0.00,VWS V14.00,2013-06-09 01:45:00,
2013-06-08 21:50:00,65.1,47.6,29.97,NW,315,0.0,0.0,53,0.00,,---,0.00,VWS V14.00,2013-06-09 01:50:00,
2013-06-08 21:55:00,64.9,47.9,29.97,NW,315,0.0,0.0,54,0.00,,---,0.00,VWS V14.00,2013-06-09 01:55:00,
2013-06-08 22:01:00,64.6,47.6,30.00,NW,315,0.0,0.0,54,0.00,,---,0.00,VWS V14.00,2013-06-09 02:01:00,
2013-06-08 22:05:00,64.4,47.9,30.00,NW,315,0.0,0.0,55,0.00,,---,0.00,VWS V14.00,2013-06-09 02:05:00,
2013-06-08 22:11:00,64.2,48.2,30.00,NW,315,0.0,0.0,56,0.00,,---,0.00,VWS V14.00,2013-06-09 02:11:00,
2013-06-08 22:16:00,64.0,48.5,30.00,NW,315,0.0,0.0,57,0.00,,---,0.00,VWS V14.00,2013-06-09 02:16:00,
2013-06-08 22:21:00,63.9,48.3,30.00,NW,315,0.0,0.0,57,0.00,,---,0.00,VWS V14.00,2013-06-09 02:21:00,
2013-06-08 22:26:00,63.5,48.5,30.03,NW,315,0.0,0.0,58,0.00,,---,0.00,VWS V14.00,2013-06-09 02:26:00,
2013-06-08 22:31:00,63.3,48.3,30.03,NW,315,0.0,0.0,58,0.00,,---,0.00,VWS V14.00,2013-06-09 02:31:00,
2013-06-08 22:36:00,63.1,48.6,30.03,NW,315,0.0,0.0,59,0.00,,---,0.00,VWS V14.00,2013-06-09 02:36:00,
2013-06-08 22:41:00,63.0,48.4,30.03,NW,315,0.0,0.0,59,0.00,,---,0.00,VWS V14.00,2013-06-09 02:41:00,
2013-06-08 22:46:00,62.8,48.3,30.03,NW,315,0.0,0.0,59,0.00,,---,0.00,VWS V14.00,2013-06-09 02:46:00,
2013-06-08 22:51:00,62.6,48.1,30.03,NW,315,0.0,0.0,59,0.00,,---,0.00,VWS V14.00,2013-06-09 02:51:00,
2013-06-08 22:57:00,62.4,48.4,30.03,NW,315,0.0,0.0,60,0.00,,---,0.00,VWS V14.00,2013-06-09 02:57:00,
2013-06-08 23:02:00,62.2,48.6,30.03,NW,315,0.0,0.0,61,0.00,,---,0.00,VWS V14.00,2013-06-09 03:02:00,
2013-06-08 23:07:00,62.2,48.6,30.03,NW,315,0.0,0.0,61,0.00,,---,0.00,VWS V14.00,2013-06-09 03:07:00,
2013-06-08 23:12:00,62.2,48.6,30.03,NW,315,0.0,0.0,61,0.00,,---,0.00,VWS V14.00,2013-06-09 03:12:00,
2013-06-08 23:17:00,62.2,48.6,30.03,NW,315,0.0,0.0,61,0.00,,---,0.00,VWS V14.00,2013-06-09 03:17:00,
2013-06-08 23:22:00,62.2,48.6,30.03,NW,315,0.0,0.0,61,0.00,,---,0.00,VWS V14.00,2013-06-09 03:22:00,
2013-06-08 23:27:00,62.2,49.1,30.03,NW,315,0.0,0.0,62,0.00,,---,0.00,VWS V14.00,2013-06-09 03:27:00,
2013-06-08 23:32:00,62.1,48.9,30.03,NW,315,0.0,0.0,62,0.00,,---,0.00,VWS V14.00,2013-06-09 03:32:00,
2013-06-08 23:37:00,61.9,48.3,30.03,NW,315,0.0,0.0,61,0.00,,---,0.00,VWS V14.00,2013-06-09 03:37:00,
2013-06-08 23:42:00,61.7,48.1,30.03,NW,315,0.0,0.0,61,0.00,,---,0.00,VWS V14.00,2013-06-09 03:42:00,
2013-06-08 23:47:00,61.7,48.6,30.03,NW,315,0.0,0.0,62,0.00,,---,0.00,VWS V14.00,2013-06-09 03:47:00,
2013-06-08 23:52:00,61.5,48.4,30.03,NW,315,0.0,0.0,62,0.00,,---,0.00,VWS V14.00,2013-06-09 03:52:00,
2013-06-08 23:57:00,61.3,48.7,30.03,NW,315,0.0,0.0,63,0.00,,---,0.00,VWS V14.00,2013-06-09 03:57:00,